Location: *
(12.5665°N, 8.3471°E)
Time: 06:13:23
(UTC+00:00)

H-II Stage 2 - Pass Details

Date: 23 September 2019
Orbit: 298 x 28233 km, 28.6° (Epoch: 18 October)

Event Time Altitude Azimuth Distance (km) Brightness Sun altitude
Exits shadow 03:54:40 14° 332° (NNW) 1,928 4.4 -20.6°
Maximum altitude 03:58:19 36° 37° (NE) 1,900 4.8 -19.7°
Drops below altitude 10° 04:16:11 10° 99° (E) 8,742 9.2 -15.4°
Sets 04:38:41 0° 107° (ESE) 15,566 10.7 -9.9°
